Date String (YYYY-MM-DD hh:mm:ss) UTC,Instrument flags,absolute air pressure of the measurement (hPa),sample flow rate (lpm),inlet stack bypass flow (lpm),air temperature of the measurement (°C),ambient temperature measured by the external sensor (°C),aerosol sample conditioner tube jacket temperature (°C),OPC LED temperature (°C),internal box temperature (°C),relative humidity of the measurement (%),span deviation,mass concentration of particles derived from Lorenz-Mie calculation of OPC scattering (μg/m³),mass concentration of particles derived from Lorenz-Mie calculation of OPC scattering (μg/m³),mass concentration of particles derived from Lorenz-Mie calculation of OPC scattering (μg/m³)
DateTimeUTC,F1_M11,P_M11,Q1_M11,Q2_M11,T1_M11,T2_M11,T3_M11,T4_M11,T5_M11,U1_M11,ZSPAN_M11,X0_M11,X2_M11,X1_M11
2024-02-17 00:00:00,SystemResetWarning,0832.0,5.00,000.00,018.6,018.3,000.0,027.0,020.1,17.3,0000.3,0004.64,0003.71,0003.62
2024-02-17 00:01:00,SystemResetWarning,0832.0,4.99,000.00,018.5,018.1,000.0,027.0,020.0,17.3,0000.9,0004.60,0003.70,0003.62
2024-02-17 00:02:00,SystemResetWarning,0832.0,5.00,000.00,018.5,018.0,000.0,027.0,020.0,17.3,0001.2,0004.51,0003.67,0003.60
2024-02-17 00:03:00,SystemResetWarning,0832.0,4.99,000.00,018.5,017.9,000.0,027.1,020.0,17.3,0001.7,0004.43,0003.62,0003.56
2024-02-17 00:04:00,SystemResetWarning,0832.1,5.00,000.00,018.4,017.8,000.0,027.1,020.0,17.4,0002.3,0004.33,0003.58,0003.53
2024-02-17 00:05:00,SystemResetWarning,0832.1,5.01,000.00,018.4,017.8,000.0,027.1,020.0,17.3,0002.5,0004.32,0003.56,0003.50
2024-02-17 00:06:00,SystemResetWarning,0832.2,5.01,000.00,018.4,017.7,000.0,027.1,020.0,17.3,0002.6,0004.15,0003.52,0003.47
2024-02-17 00:07:00,SystemResetWarning,0832.2,5.00,000.00,018.4,017.7,000.0,027.1,020.0,17.3,0002.5,0004.06,0003.48,0003.42
2024-02-17 00:08:00,SystemResetWarning,0832.2,4.99,000.00,018.4,017.6,000.0,027.1,020.0,17.3,0002.7,0003.97,0003.43,0003.36
2024-02-17 00:09:00,SystemResetWarning,0832.2,4.99,000.00,018.4,017.6,000.0,027.1,020.0,17.3,0000.7,0003.83,0003.36,0003.30
2024-02-17 00:10:00,SystemResetWarning,0832.2,5.00,000.00,018.4,018.1,000.0,027.2,020.4,17.2,0000.0,0003.79,0003.32,0003.26
2024-02-17 00:11:00,SystemResetWarning,0832.2,5.02,000.00,018.7,018.9,000.0,027.2,020.8,16.9,0000.0,0003.80,0003.30,0003.23
2024-02-17 00:12:00,SystemResetWarning,0832.2,4.98,000.00,018.8,019.0,000.0,027.2,020.8,16.7,0000.0,0003.78,0003.29,0003.21
2024-02-17 00:13:00,SystemResetWarning,0832.2,4.99,000.00,018.7,018.8,000.0,027.1,020.6,16.7,0000.0,0003.81,0003.28,0003.20
2024-02-17 00:14:00,SystemResetWarning,0832.2,5.01,000.00,018.7,018.7,000.0,027.1,020.4,16.6,0000.0,0003.76,0003.27,0003.19
2024-02-17 00:15:00,SystemResetWarning,0832.1,5.00,000.00,018.7,018.5,000.0,027.0,020.3,16.6,0000.0,0003.72,0003.26,0003.17
2024-02-17 00:16:00,SystemResetWarning,0832.2,5.01,000.00,018.6,018.3,000.0,027.0,020.2,16.7,0000.0,0003.66,0003.24,0003.16
2024-02-17 00:17:00,SystemResetWarning,0832.2,5.00,000.00,018.5,018.2,000.0,027.0,020.1,16.7,0000.0,0003.65,0003.23,0003.15
2024-02-17 00:18:00,SystemResetWarning,0832.3,4.99,000.00,018.5,018.1,000.0,027.0,020.0,16.7,0000.0,0003.67,0003.23,0003.15
2024-02-17 00:19:00,SystemResetWarning,0832.3,4.99,000.00,018.5,018.0,000.0,027.0,020.0,16.8,0000.0,0003.65,0003.22,0003.14
2024-02-17 00:20:00,SystemResetWarning,0832.2,5.00,000.00,018.4,017.9,000.0,027.1,020.0,16.8,0000.0,0003.75,0003.23,0003.13
2024-02-17 00:21:00,SystemResetWarning,0832.2,5.00,000.00,018.4,017.8,000.0,027.1,020.0,16.8,0000.0,0003.77,0003.21,0003.12
2024-02-17 00:22:00,SystemResetWarning,0832.2,5.00,000.00,018.4,017.8,000.0,027.1,020.1,16.8,0000.0,0004.88,0003.17,0003.06
2024-02-17 00:23:00,SystemResetWarning,0832.3,5.02,000.00,018.5,018.4,000.0,027.2,020.5,16.7,0000.0,0004.88,0003.13,0002.99
2024-02-17 00:24:00,SystemResetWarning,0832.3,4.99,000.00,018.7,019.1,000.0,027.3,020.9,16.5,0000.0,0005.07,0003.10,0002.95
2024-02-17 00:25:00,SystemResetWarning,0832.3,4.99,000.00,018.8,019.0,000.0,027.2,020.8,16.4,0000.0,0005.00,0003.06,0002.90
2024-02-17 00:26:00,SystemResetWarning,0832.3,4.99,000.00,018.8,018.8,000.0,027.1,020.6,16.4,0000.0,0004.97,0003.02,0002.86
2024-02-17 00:27:00,SystemResetWarning,0832.3,5.00,000.00,018.7,018.6,000.0,027.1,020.4,16.4,0000.0,0004.99,0003.00,0002.83
2024-02-17 00:28:00,SystemResetWarning,0832.4,5.01,000.00,018.7,018.5,000.0,027.1,020.3,16.4,0000.0,0005.00,0003.00,0002.81
2024-02-17 00:29:00,SystemResetWarning,0832.3,5.00,000.00,018.6,018.3,000.0,027.0,020.1,16.4,0000.0,0004.92,0002.95,0002.77
2024-02-17 00:30:00,SystemResetWarning,0832.3,5.00,000.00,018.6,018.2,000.0,027.0,020.0,16.4,0000.0,0004.95,0002.96,0002.77
2024-02-17 00:31:00,SystemResetWarning,0832.4,5.00,000.00,018.5,018.0,000.0,027.0,020.0,16.4,0000.0,0004.86,0002.95,0002.78
2024-02-17 00:32:00,SystemResetWarning,0832.4,5.00,000.00,018.5,017.9,000.0,027.0,020.0,16.4,0000.0,0004.76,0002.94,0002.79
2024-02-17 00:33:00,SystemResetWarning,0832.6,4.99,000.00,018.4,017.9,000.0,027.1,020.0,16.5,0000.0,0003.75,0002.93,0002.80
2024-02-17 00:34:00,SystemResetWarning,0832.5,5.01,000.00,018.4,017.8,000.0,027.1,020.0,16.6,0000.0,0003.44,0002.92,0002.80
2024-02-17 00:35:00,SystemResetWarning,0832.5,5.01,000.00,018.4,017.7,000.0,027.1,020.0,16.6,0000.0,0003.15,0002.93,0002.81
2024-02-17 00:36:00,SystemResetWarning,0832.5,5.00,000.00,018.5,018.2,000.0,027.2,020.3,16.5,0000.0,0003.12,0002.94,0002.82
2024-02-17 00:37:00,SystemResetWarning,0832.7,4.99,000.00,018.7,019.0,000.0,027.3,020.9,16.4,0000.0,0003.12,0002.95,0002.84
2024-02-17 00:38:00,SystemResetWarning,0832.6,5.00,000.00,018.8,019.1,000.0,027.2,020.9,16.2,0000.0,0003.08,0002.94,0002.84
2024-02-17 00:39:00,SystemResetWarning,0832.5,4.99,000.00,018.8,018.9,000.0,027.2,020.6,16.2,0000.0,0003.00,0002.91,0002.83
2024-02-17 00:40:00,SystemResetWarning,0832.5,5.00,000.00,018.7,018.7,000.0,027.1,020.4,16.3,0000.0,0002.97,0002.91,0002.84
2024-02-17 00:41:00,SystemResetWarning,0832.6,5.02,000.00,018.7,018.5,000.0,027.1,020.2,16.3,0000.0,0003.21,0002.91,0002.85
2024-02-17 00:42:00,SystemResetWarning,0832.5,4.99,000.00,018.6,018.4,000.0,027.0,020.1,16.3,0000.0,0003.25,0002.91,0002.85
2024-02-17 00:43:00,SystemResetWarning,0832.5,5.00,000.00,018.6,018.2,000.0,027.0,020.1,16.4,0000.0,0003.32,0002.93,0002.86
2024-02-17 00:44:00,SystemResetWarning,0832.6,5.00,000.00,018.5,018.1,000.0,027.0,020.0,16.4,0000.0,0003.37,0002.96,0002.88
2024-02-17 00:45:00,SystemResetWarning,0832.6,4.99,000.00,018.5,018.0,000.0,027.1,020.0,16.5,0000.0,0003.46,0003.02,0002.93
2024-02-17 00:46:00,SystemResetWarning,0832.6,5.00,000.00,018.4,017.8,000.0,027.1,020.0,16.5,0000.0,0003.52,0003.07,0002.96
2024-02-17 00:47:00,SystemResetWarning,0832.7,5.01,000.00,018.4,017.7,000.0,027.1,020.0,16.5,0000.0,0003.59,0003.11,0003.00
2024-02-17 00:48:00,SystemResetWarning,0832.7,5.00,000.00,018.4,017.7,000.0,027.1,020.0,16.5,0000.0,0003.69,0003.14,0003.05
2024-02-17 00:49:00,SystemResetWarning,0832.6,4.99,000.00,018.4,017.7,000.0,027.1,020.0,16.5,0000.0,0003.79,0003.17,0003.09
2024-02-17 00:50:00,SystemResetWarning,0832.7,5.00,000.00,018.5,018.2,000.0,027.2,020.4,16.4,0000.0,0003.86,0003.20,0003.12
2024-02-17 00:51:00,SystemResetWarning,0832.8,5.00,000.00,018.7,019.0,000.0,027.3,020.9,16.2,0000.0,0003.94,0003.23,0003.14
2024-02-17 00:52:00,SystemResetWarning,0832.8,4.99,000.00,018.8,019.0,000.0,027.2,020.8,16.1,0000.0,0003.72,0003.26,0003.17
2024-02-17 00:53:00,SystemResetWarning,0832.8,4.99,000.00,018.8,018.8,000.0,027.2,020.6,16.1,0000.0,0003.71,0003.28,0003.19
2024-02-17 00:54:00,SystemResetWarning,0832.7,5.01,000.00,018.7,018.6,000.0,027.1,020.4,16.1,0000.0,0003.74,0003.31,0003.22
2024-02-17 00:55:00,SystemResetWarning,0832.7,5.00,000.00,018.7,018.4,000.0,027.1,020.2,16.1,0000.0,0003.80,0003.34,0003.25
2024-02-17 00:56:00,SystemResetWarning,0832.8,5.00,000.00,018.6,018.3,000.0,027.1,020.1,16.1,0000.0,0003.80,0003.34,0003.25
2024-02-17 00:57:00,SystemResetWarning,0832.8,5.00,000.00,018.5,018.1,000.0,027.0,020.0,16.1,0000.0,0003.83,0003.36,0003.27
2024-02-17 00:58:00,SystemResetWarning,0833.0,5.00,000.00,018.5,018.0,000.0,027.1,020.0,16.2,0000.0,0003.82,0003.36,0003.28
2024-02-17 00:59:00,SystemResetWarning,0833.0,5.00,000.00,018.5,017.9,000.0,027.1,020.0,16.2,0000.0,0003.76,0003.36,0003.28
